{"data":{"norad_id":62759,"epoch":"2026-05-24T19:10:56.807040Z","epoch_age_seconds":82551,"freshness":"FRESH","line1":"1 62759U 25015B   26144.79926860  .00008073  00000+0  27152-3 0  9993","line2":"2 62759  53.1591 328.9518 0000784  50.3996 309.7075 15.31712770 75379","mean_motion":15.3171277,"eccentricity":7.84e-5,"inclination_deg":53.1591,"raan_deg":328.9518,"arg_perigee_deg":50.3996,"mean_anomaly_deg":309.7075,"bstar":0.00027152,"rev_number":7537,"period_min":94.01240416635,"perigee_km":470.1649798126,"apogee_km":471.23887775663,"semimajor_km":6848.8389287846,"source":"CELESTRAK","updated_at":"2026-05-25T13:38:19.743118Z"}}